Location: Briis
(48.6240°N, 2.1211°E)
Time: 19:10:08
(UTC+00:00)

Cosmos 2219 Rocket - Pass Details

Date: 25 September 2020
Orbit: 827 x 847 km, 71.0° (Epoch: 22 October)

Event Time Altitude Azimuth Distance (km) Brightness Sun altitude
Rises 05:00:22 0° 204° (SSW) 3,388 5.0 -7.8°
Reaches altitude 10° 05:02:48 10° 204° (SSW) 2,459 4.3 -7.4°
Maximum altitude 05:08:28 87° 117° (ESE) 855 2.3 -6.5°
Drops below altitude 10° 05:14:11 10° 29° (NNE) 2,482 5.1 -5.6°
Sets 05:16:39 0° 29° (NNE) 3,421 5.9 -5.2°
